{"data":{"norad_id":55375,"epoch":"2026-05-24T23:54:12.257280Z","epoch_age_seconds":71309,"freshness":"FRESH","line1":"1 55375U 23013AW  26144.99597520 -.00000256  00000+0  21698-6 0  9992","line2":"2 55375  43.0019 250.5534 0001583 263.7283  96.3388 15.27577041183138","mean_motion":15.27577041,"eccentricity":0.0001583,"inclination_deg":43.0019,"raan_deg":250.5534,"arg_perigee_deg":263.7283,"mean_anomaly_deg":96.3388,"bstar":2.1698e-7,"rev_number":18313,"period_min":94.266931313483,"perigee_km":481.97182920286,"apogee_km":484.14408352604,"semimajor_km":6861.1949563645,"source":"CELESTRAK","updated_at":"2026-05-25T13:38:17.769140Z"}}